Location: B?dimalle
(17.1788°N, 80.5377°E)
Time: 15:14:50
(UTC+00:00)

Vanguard 1 - Pass Details

Date: 24 February 2026
Orbit: 653 x 3818 km, 34.2° (Epoch: 9 March)

Event Time Altitude Azimuth Distance (km) Brightness Sun altitude
Rises 17:40:34 0° 283° (WNW) 7,556 14.8 -71.1°
Reaches altitude 10° 17:46:47 10° 273° (W) 6,774 14.4 -72.5°
Enters shadow 17:59:45 26° 240° (WSW) 5,605 13.7 -75.2°
